Theta_e
335 339 351 354 353 354 352 352 352 352 352 351 351 352 351 350 350 350 350 349 352 348 346 344 343 341 341 342 343 344 343 345 347 347 348 348 347 348 349 350 349 350 351
335 338 348 353 354 354 354 352 352 352 352 350 350 349 350 350 350 351 350 350 349 346 343 343 342 339 338 337 337 338 337 339 342 345 344 345 347 345 346 347 347 346 349
335 339 349 351 353 353 353 353 352 352 350 348 348 347 346 346 346 347 349 350 347 346 343 341 340 337 335 333 332 333 334 337 338 342 343 343 344 346 345 345 345 344 345
335 340 348 348 352 353 353 352 351 351 351 348 347 346 346 345 346 349 349 349 347 347 345 341 338 334 331 329 329 330 331 335 338 337 343 344 343 345 345 344 343 343 343
336 341 347 347 352 353 353 353 351 351 350 348 347 347 347 347 346 347 348 347 346 344 344 340 336 332 328 325 326 328 330 337 336 340 343 343 346 344 343 342 342 342 343
335 341 344 347 352 353 352 352 351 349 349 348 347 346 348 348 347 347 347 347 345 343 341 339 334 330 326 323 324 325 332 335 332 337 339 339 345 343 343 342 341 342 342
334 338 343 346 350 352 352 352 352 350 350 350 348 347 349 347 347 347 345 343 343 341 335 334 332 328 323 320 324 325 331 329 330 332 333 336 339 339 339 341 340 341 340
333 336 339 338 343 347 350 350 350 350 350 350 349 349 348 347 345 344 343 341 341 340 336 332 329 326 321 319 322 324 326 323 324 326 327 330 335 337 336 335 336 334 334
330 334 337 340 341 336 342 343 345 347 347 347 347 347 346 345 345 342 339 340 337 337 334 332 328 324 320 316 318 321 321 319 321 321 322 325 332 331 331 332 333 334 332
310 318 329 335 339 342 346 334 338 341 343 343 342 340 337 338 339 336 334 337 336 335 333 331 327 323 319 314 315 312 312 311 312 315 318 322 326 327 326 326 328 329 330
302 303 304 311 332 338 341 339 332 334 337 337 337 334 335 343 342 334 330 334 337 336 333 331 326 322 314 307 309 307 304 306 306 307 310 318 322 323 323 324 324 325 326
298 300 301 303 305 321 337 340 339 342 341 343 343 342 339 339 337 333 327 329 332 331 333 330 325 317 308 301 301 302 301 301 304 304 305 313 318 321 320 321 321 322 323
296 299 300 302 304 306 328 337 339 340 340 342 342 340 338 335 332 331 329 329 330 324 327 323 317 315 308 303 302 301 300 300 302 303 302 310 314 318 321 321 321 323 324
296 298 299 301 303 307 315 333 337 337 337 336 335 335 335 332 330 329 327 327 326 325 323 320 316 314 309 303 301 300 299 300 300 302 303 305 313 317 321 322 322 324 324
295 296 298 300 304 308 313 330 333 334 335 335 336 333 331 330 328 327 327 327 326 323 321 318 314 311 311 305 301 299 299 299 299 300 302 302 309 316 320 323 324 324 324
294 295 297 300 307 312 315 327 329 331 331 330 329 329 329 329 327 326 324 323 323 325 324 318 314 311 308 306 302 299 299 299 298 299 300 302 305 311 316 323 325 324 325
293 294 296 301 307 318 323 325 327 325 324 323 323 322 324 325 325 324 323 322 320 320 318 315 312 310 306 302 302 300 298 298 298 298 299 300 303 305 309 316 321 323 326
292 293 296 299 306 313 316 315 310 308 307 308 309 312 314 316 319 319 318 317 316 315 313 311 308 307 306 304 304 301 299 297 297 297 298 298 299 301 304 308 313 317 319
291 292 295 297 300 306 305 303 301 300 300 300 300 302 304 307 311 312 311 311 312 310 309 308 304 304 303 302 300 300 299 299 298 296 297 297 298 300 301 302 305 306 310
290 291 293 295 297 303 302 300 298 297 296 295 295 296 297 299 303 305 304 305 307 306 305 306 304 302 299 297 296 296 298 298 299 298 297 296 296 296 297 298 300 302 303
289 290 291 293 294 297 298 298 295 292 292 291 291 292 293 295 296 297 299 300 302 300 300 300 302 301 300 298 298 301 300 297 296 296 296 295 296 295 296 296 297 298 299
286 287 289 290 292 294 294 294 293 291 289 289 289 288 289 291 292 292 293 293 294 296 296 296 297 298 298 296 295 295 295 298 295 296 295 294 295 295 295 295 295 295 296
285 284 286 287 289 291 293 292 291 290 289 287 286 286 286 287 288 289 289 290 290 291 291 293 294 294 294 296 295 293 294 292 291 296 296 294 294 294 295 294 294 295 295
283 284 284 285 286 287 288 288 287 285 283 284 284 285 285 285 286 286 286 286 287 287 287 289 290 291 293 291 294 294 294 292 289 290 294 296 295 295 295 296 295 295 295
283 282 283 284 284 284 285 286 284 283 284 284 284 283 283 284 284 284 285 285 285 285 285 285 285 285 287 287 289 290 291 292 291 289 288 291 294 295 296 295 295 294 294
282 282 283 283 282 283 283 283 283 283 282 282 282 282 282 282 282 282 283 283 283 283 283 283 284 283 284 284 284 286 286 286 286 286 286 286 287 291 293 294 294 295 295
Wind_Speed
7 7 8 11 11 12 11 11 11 10 11 11 12 11 11 11 10 8 7 6 11 15 14 13 13 13 13 13 12 11 12 11 12 13 13 12 13 13 13 13 12 13 11
3 10 9 11 10 9 9 10 9 9 10 11 11 11 10 9 10 10 7 10 12 14 13 12 12 12 12 12 11 10 11 10 9 9 9 10 10 12 13 13 13 13 15
5 11 11 10 11 9 9 9 9 9 10 10 10 9 9 8 8 7 8 9 10 11 11 11 11 11 11 10 9 9 9 9 7 8 7 6 8 10 11 12 12 13 14
6 9 9 9 9 9 8 8 8 8 9 10 10 10 9 8 7 8 9 8 9 11 15 11 10 11 11 10 9 8 8 8 7 6 4 5 5 8 10 11 11 12 13
8 9 8 8 8 8 10 9 8 7 6 7 7 8 7 8 7 7 7 9 10 9 14 10 10 10 11 10 9 9 7 8 8 5 5 5 3 7 8 8 9 11 11
5 8 9 11 10 9 8 11 9 8 7 7 6 6 7 8 7 6 7 8 10 12 13 11 9 10 11 10 9 8 8 8 6 5 5 6 5 6 8 5 6 11 11
2 2 5 9 10 10 10 10 11 9 8 8 7 6 7 9 8 7 6 5 6 10 8 8 8 10 10 10 10 9 8 8 5 5 5 6 7 8 9 9 7 9 12
4 3 2 5 5 7 8 10 10 10 9 8 8 6 7 9 8 6 4 2 6 8 7 6 6 8 9 9 9 9 9 8 5 5 5 5 8 7 7 7 7 7 8
6 3 2 4 6 5 6 8 9 10 8 7 6 5 7 8 7 6 3 3 4 7 7 6 6 7 8 9 10 10 9 9 5 4 5 4 8 6 7 7 7 7 7
10 9 7 3 4 7 7 6 7 8 9 8 8 7 7 7 7 6 4 2 3 5 6 6 8 7 8 8 10 10 9 8 5 4 4 5 9 7 7 7 6 6 5
10 11 9 9 6 5 5 5 6 6 8 10 9 9 8 5 8 7 5 5 3 5 7 9 7 9 8 8 9 9 7 3 4 4 3 10 9 7 5 5 5 4 4
12 11 9 9 8 9 3 4 4 4 5 4 6 7 4 4 3 4 6 6 5 6 8 8 9 9 6 3 3 5 3 3 3 3 3 9 8 8 7 5 5 4 3
8 8 10 8 6 6 5 2 1 1 2 4 5 4 3 3 3 3 2 3 3 4 2 5 5 3 3 2 2 2 3 3 2 2 3 8 8 7 8 6 5 4 3
10 9 10 10 7 4 3 2 1 1 1 1 2 3 1 2 3 4 3 3 3 3 3 3 2 4 4 3 3 3 3 2 2 2 3 8 9 9 9 8 5 3 3
11 13 13 12 9 6 3 4 3 3 2 1 1 3 2 2 1 2 2 3 3 3 3 3 3 2 3 3 2 2 3 4 4 3 3 8 9 9 10 10 8 5 5
9 11 13 12 11 6 2 5 4 3 3 4 4 4 4 2 2 2 1 2 1 3 3 2 3 3 1 1 2 1 1 2 2 4 3 5 10 11 11 11 9 8 7
8 9 12 11 11 6 6 5 5 7 8 8 7 11 9 5 3 2 2 2 2 1 3 3 3 3 2 2 3 1 1 2 3 4 3 3 5 9 11 12 12 11 11
7 8 7 8 11 12 12 11 10 10 9 9 8 9 12 12 10 8 6 5 4 3 3 3 2 2 2 3 3 4 3 3 4 4 4 3 3 3 5 9 11 12 12
8 9 9 9 10 11 13 12 12 12 10 9 8 8 11 11 11 8 7 6 6 5 6 3 2 2 2 3 3 3 3 4 3 4 5 5 5 5 4 6 8 10 11
10 8 7 6 8 9 9 10 9 10 10 9 10 10 12 10 11 8 8 9 8 7 6 5 4 3 3 3 4 4 4 4 3 3 5 5 5 5 5 6 6 5 10
12 13 13 10 10 5 5 7 7 8 9 10 10 14 14 13 14 12 9 10 9 9 9 8 3 6 6 6 4 3 2 3 3 2 3 3 5 5 6 6 4 4 5
9 11 11 11 10 8 5 5 5 6 9 9 8 13 14 14 14 13 12 11 12 9 12 12 9 3 3 7 5 2 4 3 4 3 2 4 5 4 5 6 7 8 7
9 10 10 10 10 9 9 8 7 6 6 7 9 9 12 15 14 13 14 11 11 10 9 10 10 10 6 5 9 5 4 4 6 3 4 3 6 6 6 6 7 7 7
7 7 8 8 9 9 9 10 13 9 10 5 8 8 10 13 14 13 13 12 11 8 11 9 10 10 7 8 3 7 5 3 4 7 2 6 6 10 8 6 7 8 8
3 6 7 8 11 10 10 10 10 13 9 6 6 11 11 11 13 13 12 12 11 8 10 11 11 11 9 7 6 4 3 4 2 4 8 7 7 7 8 6 7 7 8
3 5 7 9 9 9 10 10 12 13 9 8 8 8 7 7 7 11 10 10 10 10 10 8 9 11 8 7 5 6 5 4 6 5 7 10 10 5 7 8 8 7 7
Wind_Direction
225 200 187 158 156 155 148 130 119 112 111 108 106 101 101 105 111 104 92 84 90 81 70 63 59 54 54 55 61 64 53 53 58 61 62 65 64 59 54 47 46 56 61
181 181 186 161 161 157 143 131 123 115 114 113 110 106 102 92 81 79 71 89 76 73 66 59 56 56 54 52 51 52 51 45 52 60 61 61 66 67 62 49 50 46 47
185 172 179 170 166 159 144 134 132 131 128 126 122 115 108 102 94 90 106 97 90 91 78 55 51 51 50 48 46 49 49 49 57 60 62 72 74 73 70 64 60 58 52
162 172 178 173 168 159 149 141 143 141 139 137 133 129 124 118 105 96 108 98 97 91 88 56 45 40 38 36 40 47 53 50 57 56 66 67 69 88 80 73 67 65 59
159 170 175 177 173 170 162 159 156 151 144 139 133 128 123 119 118 109 103 108 105 85 73 62 36 33 30 29 32 39 54 63 58 66 68 65 62 80 77 79 84 79 69
163 170 172 178 180 178 190 168 164 166 164 156 152 147 142 122 115 118 116 138 111 86 64 62 37 30 26 24 24 40 58 64 61 60 56 40 58 77 79 75 118 116 98
129 186 192 191 186 180 182 176 170 176 181 176 175 180 171 135 121 118 115 89 111 72 60 40 27 28 24 25 27 41 55 58 59 55 46 33 42 54 54 55 49 67 71
123 144 197 221 214 198 191 195 178 179 188 190 183 203 173 153 144 141 132 114 60 71 89 75 35 34 29 28 34 43 52 48 46 48 37 27 6 33 33 28 26 45 51
51 78 144 193 212 238 216 202 201 192 197 207 199 207 184 167 161 152 152 119 73 70 81 79 70 50 42 34 34 44 52 53 51 30 24 14 349 22 26 25 19 26 36
27 22 5 322 230 220 217 235 215 193 195 199 204 200 197 184 168 155 118 80 71 81 82 79 89 62 56 44 44 43 38 40 39 23 18 4 3 13 16 17 18 12 12
11 11 7 356 311 238 226 212 220 233 208 201 205 201 204 176 178 163 162 160 107 99 95 98 89 83 65 45 37 41 47 38 26 18 9 354 353 350 357 7 3 2 348
354 351 1 354 345 323 260 203 203 196 233 232 223 212 189 186 136 163 147 136 115 118 118 122 111 86 68 50 22 30 38 29 29 13 5 354 350 345 339 339 343 337 346
328 338 345 341 336 329 299 246 181 156 162 235 270 229 147 122 127 145 144 145 141 133 108 117 124 103 84 64 57 39 19 15 7 356 341 348 350 344 337 328 329 336 348
344 336 332 335 326 310 230 277 149 131 156 227 39 18 102 114 162 168 164 160 154 162 155 155 154 129 120 100 38 7 9 4 350 335 327 340 344 345 339 322 314 317 309
353 341 340 333 331 313 235 165 134 130 118 76 342 57 32 148 206 177 208 178 174 166 168 164 149 156 143 131 103 32 359 352 342 333 323 330 336 343 342 332 306 296 292
350 346 337 341 339 323 170 143 106 101 77 54 48 34 42 16 320 274 171 179 225 215 192 162 167 161 141 203 148 116 4 318 314 321 323 324 335 339 339 340 323 309 296
348 338 353 352 348 26 79 86 74 67 64 55 49 38 35 37 64 46 353 343 24 18 9 13 34 32 49 7 330 323 302 309 309 307 309 315 326 331 334 333 338 339 332
353 7 2 19 17 42 59 62 60 56 58 50 44 43 42 40 37 42 48 38 23 33 70 60 48 32 13 358 336 322 306 285 285 284 286 285 281 290 313 323 329 332 333
358 359 17 33 52 60 70 77 69 63 58 47 46 45 41 51 55 56 51 35 54 52 46 40 59 44 14 350 304 287 280 279 273 281 281 292 295 299 305 307 319 324 330
5 18 21 37 52 89 93 82 77 70 61 53 45 38 34 38 40 59 55 40 41 53 43 37 35 26 20 320 296 299 278 262 275 309 318 314 311 308 313 320 321 318 323
22 16 14 25 18 60 70 84 77 73 65 60 53 46 47 41 43 44 46 48 45 47 44 34 26 27 27 347 314 316 310 324 353 5 355 333 326 328 318 303 295 299 308
36 26 22 23 23 39 56 83 80 86 68 67 57 53 50 50 47 50 47 44 42 50 40 35 31 27 30 17 346 300 347 341 18 337 11 10 15 348 331 324 317 309 302
43 37 32 19 25 35 64 92 92 85 70 54 44 52 45 53 53 50 56 54 53 46 47 39 32 36 31 15 33 5 337 341 327 351 360 26 3 360 346 334 318 300 292
29 55 57 70 53 40 43 69 75 84 91 75 75 67 58 50 51 50 54 55 54 48 48 42 39 40 46 33 358 18 6 324 329 319 328 335 356 334 324 315 309 305 295
32 61 62 63 67 67 73 85 94 97 96 96 85 78 67 57 50 49 50 51 51 46 47 46 45 43 41 47 38 352 4 347 11 311 308 310 309 307 301 305 301 294 295
46 51 64 75 65 64 79 85 98 106 108 98 84 76 64 62 56 49 49 50 52 48 39 39 43 44 40 46 36 36 31 357 337 330 307 316 312 316 310 290 293 293 296